Location: *
(2.5500°S, 65.9667°W)
Time: 10:47:11
(UTC+00:00)

Feng Yun 1-1 Rocket - Pass Details

Date: 26 October 2021
Orbit: 830 x 933 km, 99.2° (Epoch: 29 November)

Event Time Altitude Azimuth Distance (km) Brightness Sun altitude
Rises 23:11:02 0° 155° (SSE) 3,381 7.2 -14.8°
Reaches altitude 10° 23:13:28 10° 149° (SSE) 2,452 6.4 -15.4°
Maximum altitude 23:18:38 46° 77° (ENE) 1,130 4.4 -16.7°
Drops below altitude 10° 23:23:52 10° 5° (N) 2,490 6.5 -17.9°
Sets 23:26:21 0° 359° (N) 3,439 7.2 -18.5°
